Regional Weather Roundup
Issued by NWS

Home | Current Version | Previous Version | Graphics & Text | Print | Product List | Glossary On
Versions: 1 2 3 4 5 6 7 8 9 10 11 12 13 14 15 16 17 18 19 20 21 22 23 24 25 26 27 28 29 30 31 32 33 34 35 36 37 38 39 40 41 42 43 44 45 46 47 48 49 50
000
ASUS45 KBOU 070910
RWRCO

WEATHER ROUNDUP FOR COLORADO
NATIONAL WEATHER SERVICE DENVER/BOULDER CO
300 AM MDT TUE JUL 07 2015

NOTE: "FAIR" INDICATES FEW OR NO CLOUDS BELOW 12000 FEET WITH NO
SIGNIFICANT WEATHER AND/OR OBSTRUCTIONS TO VISIBILITY.

COZ001>005-013-030-031-071000-
...NORTHWEST COLORADO...

CITY           SKY/WX    TMP DP  RH WIND       PRES   REMARKS
CRAIG          NOT AVBL
HAYDEN         CLOUDY    54  48  82 SE15      30.25S
MEEKER         CLOUDY    58  53  84 NE5       30.20F
MOUNT WERNER   NOT AVBL
STEAMBOAT SPGS CLOUDY    53  52  97 E7        30.27F
WALDEN         CLOUDY    54  52  94 CALM      30.34R
$$

COZ006>008-011-071000-
...WEST CENTRAL VALLEYS...

CITY           SKY/WX    TMP DP  RH WIND       PRES   REMARKS
GRAND JUNCTION MOCLDY    67  54  63 SE3       30.09S
MONTROSE       PTCLDY    61  48  62 S6        30.18S
EAGLE          CLOUDY    57  55  94 NE8       30.27F
RIFLE          CLOUDY    62  55  77 E8        30.15F
DELTA          PTCLDY    65  51  60 N7        30.12F
NUCLA          PTCLDY    59  50  72 E6        30.20F
$$

COZ017>023-064>068-071000-
...SOUTHWEST COLORADO...

CITY           SKY/WX    TMP DP  RH WIND       PRES   REMARKS
DURANGO        MOCLDY    58  54  86 E3        30.23F
CORTEZ         CLEAR     57  51  80 SE3       30.17S
PAGOSA SPRINGS CLOUDY    58  52  78 CALM      30.31F
TELLURIDE      CLOUDY    50  45  83 CALM      30.39R
WOLF CREEK PAS NOT AVBL
$$

COZ009-010-012-014-032>034-037-058>063-071000-
...CENTRAL COLORADO...

CITY           SKY/WX    TMP DP  RH WIND       PRES   REMARKS
ASPEN          CLOUDY    56  49  77 S3        30.31F
BUENA VISTA    CLOUDY    53  50  87 SE6       30.37F
COPPER MTN     MOCLDY    45  41  87 S21       30.57F
BERTHOUD PASS  SNOW      36  28  75 SE15      30.60F VSB<1/4
COTTONWOOD PAS NOT AVBL
GUNNISON       MOCLDY    52  43  71 N12       30.33R
KREMMLING      CLOUDY    54  50  87 CALM      30.32S
LEADVILLE      CLOUDY    47  46  97 CALM      30.45S
MONARCH PASS   FOG       41  39  93 NE12      30.66F VSB<1/4
SALIDA         CLOUDY    56  53  92 CALM      30.42F
SUNLIGHT       CLOUDY    46  43  87 CALM      30.50F
WILKERSON PASS FOG       43  41  93 SW5       30.56F VSB 1/2
$$

COZ069>075-071000-
...SAN LUIS VALLEY/SANGRE DE CRISTO MOUNTAINS...

CITY           SKY/WX    TMP DP  RH WIND       PRES   REMARKS
ALAMOSA        CLOUDY    55  53  93 CALM      30.32F
LA VETA PASS   DRZL/FOG  41  39  93 MISG      30.48F VSB 1/4
SAGUACHE       MOCLDY    52  50  93 W3        30.35F
$$

COZ035-036-038>040-071000-
...NORTHERN COLORADO FRONT RANGE...

CITY           SKY/WX    TMP DP  RH WIND       PRES   REMARKS
DENVER INTL AP CLOUDY    59  53  80 SE8       30.26F HAZE
DMNS CITY PARK   N/A     60  55  84 E9        30.25F
AURORA         CLOUDY    58  55  90 SE7       30.28S
FRONT RANGE AP NOT AVBL
ERIE MUNI ARPT CLOUDY    59  57  93 CALM      30.25F FOG
BOULDER MUN AP CLOUDY    57  57 100 CALM      30.25F FOG
CENTENNIAL     LGT RAIN  58  54  86 S8        30.27F FOG
BROOMFIELD     CLOUDY    59  55  88 S3        30.28F FOG
FORT COLLINS   MOCLDY    59  55  88 S6        30.26F
LONGMONT       CLOUDY    60  58  92 CALM      30.26F FOG
$$

COZ041-046-047-076>085-087-088-071000-
...PIKES PEAK/PALMER DIVIDE AND SOUTHERN FOOTHILLS...

CITY           SKY/WX    TMP DP  RH WIND       PRES   REMARKS
COLO. SPRINGS  CLOUDY    56  52  86 SE8       30.33F FOG
A. F. ACADEMY  DRIZZLE   54  54 100 S12       30.32F FOG
ELLICOTT       CLOUDY   N/A N/A N/A SE10      30.31F HAZE
FALCON         CLOUDY    52  51  96 SE10      30.36F FOG
FORT CARSON    CLOUDY    57  54  90 E7        30.31F
LIMON          CLOUDY    54  51  90 SE5       30.28F FOG
MONUMENT HILL  CLOUDY    52  50  93 S13       30.34F FOG
TRINIDAD       CLOUDY    57  55  93 E6        30.27F FOG
$$

COZ042>045-048>051-090-091-071000-
...NORTHEAST COLORADO...

CITY           SKY/WX    TMP DP  RH WIND       PRES   REMARKS
GREELEY ARPT   MOCLDY    63  54  72 SE9       30.25F
AKRON          MOCLDY    58  51  78 SE12      30.25F HAZE
BURLINGTON     CLOUDY    59  52  77 E5        30.24F
WRAY           PTCLDY    58  51  78 E3        30.22F
STERLING       CLOUDY    61  52  72 SE6         N/A
HOLYOKE        PTCLDY    59  54  82 CALM      30.23F
FORT MORGAN    CLOUDY    59  51  74 SE6       30.26S
$$

COZ086-089-092>099-071000-
...SOUTHEAST COLORADO...

CITY           SKY/WX    TMP DP  RH WIND       PRES   REMARKS
PUEBLO         CLOUDY    63  55  75 E8        30.25F HAZE
LA JUNTA       CLOUDY    62  52  69 E3        30.22F HAZE
LAMAR          MOCLDY    61  52  72 NE3       30.19F HAZE
SPRINGFIELD      N/A     61  51  70 NE12      30.21F
$$


USA.gov is the U.S. government's official web portal to all federal, state and local government web resources and services.